Date,TemperatureHighF,TemperatureAvgF,TemperatureLowF,DewpointHighF,DewpointAvgF,DewpointLowF,HumidityHigh,HumidityAvg,HumidityLow,PressureMaxIn,PressureMinIn,WindSpeedMaxMPH,WindSpeedAvgMPH,GustSpeedMaxMPH,PrecipitationSumIn
2013-1-14,83,73,67,65,64,62,89,75,50,29.93,29.88,9,2,12,0.12
2013-1-15,84,71,59,70,62,57,94,76,46,29.93,29.83,8,2,11,0.00
2013-1-16,84,70,59,67,60,57,93,73,43,29.88,29.77,8,1,11,0.08
2013-1-17,82,64,54,69,57,44,95,79,58,29.88,29.73,19,5,26,0.07
2013-1-18,68,55,41,60,48,35,90,77,60,30.04,29.87,15,3,26,0.05
2013-1-19,76,66,56,62,58,52,87,76,57,30.03,29.90,14,3,17,0.00
2013-1-20,77,66,60,63,59,54,91,79,62,29.94,29.81,8,2,13,0.00
2013-1-21,78,66,61,64,60,55,91,79,61,29.87,29.76,5,1,8,0.07
2013-1-22,69,59,46,58,45,36,91,63,30,30.05,29.83,10,2,15,0.00
2013-1-23,75,57,44,45,38,27,88,57,18,30.13,30.03,7,1,10,0.00
2013-1-24,78,58,41,50,45,39,94,68,32,30.10,29.99,7,1,11,0.00
2013-1-25,78,60,46,61,49,44,95,70,35,30.08,29.94,8,1,12,0.00
2013-1-26,80,61,44,58,50,42,94,71,36,30.05,29.93,8,1,11,0.00
2013-1-27,82,64,48,63,54,46,95,74,38,30.08,29.99,9,2,12,0.00
2013-1-28,79,70,63,66,64,60,93,81,62,30.11,30.00,11,3,15,0.01
2013-1-29,85,72,65,71,66,63,96,81,51,30.03,29.87,11,4,14,0.00
2013-1-30,86,73,63,66,63,60,95,73,43,29.89,29.68,17,6,22,0.01
2013-1-31,71,61,46,66,45,26,92,62,21,30.00,29.68,21,3,23,0.08
2013-2-1,74,55,42,39,30,14,80,47,11,30.12,29.99,8,1,11,0.00
2013-2-2,76,57,38,46,40,34,82,58,25,30.06,29.91,8,1,14,0.00
2013-2-3,74,57,42,50,42,37,85,61,34,29.96,29.83,12,2,17,0.07
2013-2-4,74,54,38,52,39,28,94,64,20,29.91,29.80,11,1,17,0.00
2013-2-5,78,59,39,53,46,37,93,66,34,29.87,29.76,12,1,17,0.00
2013-2-6,79,67,54,62,57,50,91,72,46,29.89,29.79,10,2,15,0.00
2013-2-7,81,72,64,64,61,55,87,70,47,29.85,29.63,14,6,20,0.00
2013-2-8,84,71,58,64,58,49,91,67,33,29.92,29.64,11,4,16,0.00
2013-2-9,77,64,54,57,54,52,95,73,42,29.97,29.84,10,3,15,0.00
2013-2-10,80,68,59,58,56,54,85,69,46,30.04,29.93,13,4,17,0.00
2013-2-11,61,60,58,57,56,54,90,86,82,29.97,29.92,3,1,5,0.00
2013-2-12,85,76,70,67,64,61,90,68,45,29.74,29.70,8,4,11,0.07
2013-2-13,88,74,64,71,66,57,93,76,45,29.75,29.60,16,6,26,0.27
2013-2-14,66,63,60,61,59,57,95,88,79,29.81,29.70,7,1,10,0.39
2013-2-15,73,61,56,59,56,54,97,85,57,29.85,29.72,6,2,9,0.07
2013-2-16,71,58,48,54,45,27,94,66,33,29.89,29.67,21,5,29,0.15
2013-2-17,56,47,34,30,19,11,78,37,18,30.10,29.88,11,4,19,0.00
2013-2-18,71,51,31,48,37,27,90,63,34,30.12,29.98,14,3,27,0.00
2013-2-19,80,62,45,56,50,43,94,68,39,29.98,29.83,14,3,21,0.41
2013-2-20,80,66,54,64,57,51,94,75,50,29.90,29.78,7,2,11,0.00
2013-2-21,85,71,60,65,59,54,88,69,42,29.88,29.76,10,3,14,0.00
2013-2-22,86,74,59,69,64,57,95,74,43,29.86,29.75,15,4,20,0.00
2013-2-23,89,76,69,70,66,61,93,73,41,29.79,29.65,16,5,24,0.02
2013-2-24,81,72,67,71,68,64,94,85,64,29.74,29.65,10,3,13,0.00
2013-2-25,88,74,64,72,64,59,96,74,41,29.70,29.53,13,2,17,0.00
2013-2-26,79,72,63,73,67,61,92,85,73,29.65,29.51,18,5,24,0.13
2013-2-27,78,66,56,63,56,50,96,72,38,29.74,29.64,10,3,14,0.01
2013-2-28,76,64,48,55,47,42,94,60,33,29.77,29.65,14,4,20,0.00
2013-3-1,71,61,47,47,40,31,88,49,30,29.77,29.66,12,5,18,0.00
2013-3-2,61,52,41,42,35,27,81,55,29,29.80,29.72,20,5,27,0.05
2013-3-3,56,45,33,37,32,28,83,62,38,29.93,29.75,21,5,30,0.09
2013-3-4,68,49,31,38,27,16,89,51,14,30.00,29.88,9,2,13,0.00
2013-3-5,78,59,38,57,43,34,92,62,27,29.94,29.79,15,4,18,0.00
2013-3-6,69,60,45,62,39,16,91,53,14,29.90,29.71,21,7,28,0.09
2013-3-7,70,53,39,45,38,32,86,59,31,29.98,29.87,12,2,17,0.00
2013-3-8,77,58,39,51,40,28,95,61,17,29.99,29.88,9,2,11,0.00
2013-3-9,77,60,42,54,48,41,94,66,36,30.00,29.90,9,2,14,0.00
2013-3-10,79,66,53,59,53,50,93,67,40,29.95,29.84,13,4,21,0.00
2013-3-11,79,68,54,60,56,51,92,67,44,29.89,29.67,19,5,27,0.00
2013-3-12,72,67,56,67,62,53,94,84,70,29.79,29.65,14,6,21,0.20
2013-3-13,77,62,49,53,41,26,94,56,16,30.03,29.67,11,3,17,0.09
2013-3-14,70,56,46,44,34,20,83,48,18,30.11,30.00,11,3,17,0.00
2013-3-15,73,55,37,48,36,25,94,57,20,30.14,30.00,9,2,12,0.00
2013-3-16,80,59,40,50,42,36,93,57,22,30.05,29.90,11,2,17,0.00
2013-3-17,80,65,46,58,49,42,93,57,40,30.05,29.85,14,3,17,0.00
2013-3-18,79,70,61,66,62,58,90,75,55,29.92,29.73,17,4,23,0.00
2013-3-19,88,72,62,68,62,60,96,75,40,29.86,29.74,9,2,11,0.09
2013-3-20,77,69,61,68,63,56,93,80,56,29.82,29.65,13,3,18,0.02
2013-3-21,74,61,50,58,40,18,96,55,13,29.83,29.72,8,2,13,0.00
2013-3-22,79,60,42,64,49,36,93,71,30,29.87,29.74,11,2,15,0.08
2013-3-23,89,74,63,73,66,61,96,77,45,29.84,29.63,18,4,25,0.01
2013-3-24,84,74,66,74,69,61,93,83,61,29.71,29.48,21,6,29,0.70
2013-3-25,76,66,50,68,44,17,91,53,13,29.89,29.58,14,6,21,0.00
2013-3-26,62,53,44,43,30,18,73,44,20,30.08,29.88,21,6,27,0.04
2013-3-27,66,51,35,37,31,21,88,52,20,30.16,30.04,12,3,16,0.00
2013-3-28,73,55,35,46,32,16,93,53,12,30.14,30.03,10,2,12,0.00
2013-3-29,75,59,41,52,38,26,93,55,18,30.18,30.04,10,2,14,0.00
2013-3-30,71,57,44,54,47,41,91,70,49,30.11,30.06,12,2,14,0.00
2013-3-31,83,70,57,57,53,48,83,57,32,30.03,29.85,22,3,37,0.06
2013-4-1,86,70,44,63,56,35,83,61,44,30.24,29.86,16,2,20,0.06
2013-4-2,87,72,58,65,58,52,95,67,32,30.06,29.96,10,2,14,0.00
2013-4-3,86,74,61,68,63,57,91,71,43,30.05,29.91,15,5,21,0.26
2013-4-4,72,70,67,69,66,62,93,87,73,30.00,29.83,24,6,32,0.26
2013-4-5,78,69,64,70,63,54,94,83,47,29.90,29.77,12,3,14,0.13
2013-4-6,80,66,53,59,55,51,93,71,42,30.10,29.94,14,4,17,0.00
2013-4-7,64,62,59,58,58,57,93,87,82,30.08,30.02,6,1,8,0.00
2013-4-8,86,81,59,62,61,56,93,51,42,30.10,29.92,11,6,14,0.00
2013-4-9,86,74,62,68,61,56,94,66,44,30.13,29.92,14,4,18,0.00
2013-4-10,88,74,56,70,63,55,95,72,40,30.10,29.94,12,4,17,0.00
2013-4-11,90,79,71,72,69,65,93,74,46,29.98,29.79,16,7,21,0.01
2013-4-12,81,78,74,73,72,70,92,81,73,29.87,29.84,17,10,23,0.00
2013-4-13,88,78,44,72,62,21,76,60,19,30.23,29.84,14,5,23,1.44
2013-4-14,90,77,68,73,68,60,83,75,53,30.09,29.78,16,4,23,0.17
2013-4-15,90,76,65,69,64,60,89,69,43,30.04,29.89,9,3,13,0.00
2013-4-16,88,78,69,73,68,65,92,73,50,30.11,30.00,12,4,17,0.00
2013-4-17,86,75,64,71,65,62,95,73,46,30.11,29.99,11,3,17,0.00
2013-4-18,91,77,63,71,66,61,95,71,42,30.03,29.91,12,3,15,0.00
2013-4-19,92,80,71,73,69,63,93,71,41,29.98,29.86,18,6,23,0.00
2013-4-20,78,71,62,70,64,57,93,80,61,30.11,29.92,11,4,14,0.00
2013-4-21,82,70,62,72,65,56,94,84,66,30.11,29.97,10,2,16,0.26
2013-4-22,82,72,68,70,67,63,96,85,59,30.04,29.93,14,3,17,0.37
2013-4-23,83,72,63,66,62,56,95,71,42,30.08,29.92,11,4,18,0.00
2013-4-24,87,72,56,66,60,54,96,69,40,30.11,30.02,11,3,17,0.00
2013-4-25,88,74,60,68,61,57,94,66,37,30.17,30.06,10,2,17,0.00
2013-4-26,89,75,61,68,62,59,93,67,40,30.20,30.11,11,2,14,0.00
2013-4-27,85,75,65,72,65,60,94,73,50,30.19,30.06,14,3,20,0.00
2013-4-28,87,75,65,66,62,56,91,66,37,30.10,29.95,15,5,21,0.00
2013-4-29,88,75,62,69,63,60,93,70,42,30.00,29.85,19,4,25,0.25
2013-4-30,90,74,68,70,67,64,94,80,42,29.98,29.86,18,2,24,0.63
2013-5-1,77,72,69,72,69,67,95,89,81,29.98,29.89,6,2,9,0.27
2013-5-2,79,70,65,71,67,63,95,90,75,29.92,29.92,9,2,13,1.00
2013-5-3,84,72,64,72,67,63,97,84,54,29.92,29.92,10,3,14,0.07
2013-5-4,84,74,68,70,67,63,96,79,49,29.92,29.92,12,4,17,0.00
2013-5-5,81,70,60,66,53,40,91,59,28,29.92,29.92,14,5,19,0.00
2013-5-6,80,69,58,62,55,51,91,65,39,29.92,29.92,14,4,20,0.00
2013-5-7,81,67,53,59,54,50,94,66,40,29.92,29.92,14,4,19,0.00
2013-5-8,84,71,58,64,58,54,94,66,39,29.92,29.92,11,3,15,0.00
2013-5-9,87,73,56,66,59,54,95,67,37,29.92,29.92,9,2,17,0.00
2013-5-10,90,77,62,72,66,60,94,70,43,29.92,29.92,14,3,17,0.00
2013-5-11,91,78,68,73,68,64,94,74,43,29.92,29.92,16,3,25,0.00
2013-5-12,90,78,68,75,67,63,96,72,44,29.92,29.92,14,3,18,0.00
2013-5-13,85,74,65,68,61,53,95,67,34,29.92,29.92,11,2,21,0.00
2013-5-14,85,71,54,62,54,41,95,60,25,29.92,29.92,9,3,14,0.00
2013-5-15,86,72,56,65,58,52,94,63,34,29.92,29.92,11,3,16,0.00
2013-5-16,88,75,62,65,61,55,92,64,35,29.92,29.92,13,3,16,0.00
2013-5-17,89,76,62,68,63,59,92,67,40,29.92,29.92,11,3,15,0.00
2013-5-18,93,79,65,72,67,62,94,70,37,29.92,29.92,12,3,15,0.00
2013-5-19,91,79,72,72,69,63,92,73,40,29.92,29.92,14,4,20,0.00
2013-5-20,92,78,70,72,68,62,93,75,39,29.92,29.92,20,3,29,0.92
2013-5-21,87,74,69,74,70,66,95,86,52,29.92,29.92,19,2,27,0.67
2013-5-22,88,76,68,74,70,64,95,83,46,29.92,29.92,14,2,19,0.59
2013-5-23,93,79,69,75,69,65,96,74,44,29.92,29.92,11,2,14,0.01
2013-5-24,95,81,68,74,66,58,94,66,31,29.92,29.92,12,2,16,0.00
2013-5-25,88,79,71,72,64,58,89,63,41,29.92,29.92,14,4,18,0.00
2013-5-26,86,74,59,67,60,55,93,64,35,29.92,29.92,11,3,16,0.00
2013-5-27,87,75,61,70,62,59,95,68,41,29.92,29.92,12,4,17,0.00
2013-5-28,88,77,69,73,69,65,92,77,57,29.92,29.92,16,5,21,0.00
2013-5-29,86,77,71,73,71,68,93,82,60,29.92,29.92,14,5,21,0.05
2013-5-30,86,78,74,74,71,65,93,78,54,29.92,29.92,17,6,24,0.02
2013-5-31,86,79,73,74,70,68,87,75,58,29.92,29.92,14,6,23,0.02
2013-6-1,90,80,74,74,72,71,91,77,54,29.92,29.92,13,4,17,0.00
2013-6-2,95,81,74,76,73,69,95,78,44,29.92,29.92,14,3,22,0.05
2013-6-3,90,80,74,75,73,70,95,81,53,29.92,29.92,12,3,17,0.12
2013-6-4,85,78,72,73,71,66,93,80,61,29.92,29.92,14,3,20,0.46
2013-6-5,84,76,72,75,72,68,93,90,68,29.92,29.92,18,2,27,0.80
2013-6-6,80,76,74,76,73,69,94,91,80,29.92,29.92,21,8,28,2.30
2013-6-7,87,81,72,74,73,71,95,77,60,29.92,29.92,11,5,14,0.00
2013-6-8,86,83,73,73,73,66,95,72,65,29.92,29.92,5,4,8,0.77
2013-6-9,90,80,72,77,73,69,96,80,51,29.92,29.92,15,3,19,0.01
2013-6-10,92,82,74,76,73,68,95,77,48,29.92,29.92,12,3,14,0.00
2013-6-11,92,79,72,78,73,68,95,83,51,29.92,29.92,8,2,13,0.26
2013-6-12,95,81,70,76,71,68,97,74,42,29.92,29.92,8,2,14,0.00
2013-6-13,94,82,72,76,73,69,92,76,47,29.92,29.92,11,2,16,0.06
2013-6-14,93,83,74,76,72,24,96,71,46,29.92,29.92,172,4,172,0.32
2013-6-15,90,80,74,79,74,71,94,83,61,29.92,29.92,11,2,17,0.05
2013-6-16,92,83,76,77,74,71,93,75,53,29.92,29.92,11,4,17,0.00
2013-6-17,92,83,74,79,75,70,95,78,51,29.92,29.92,16,3,20,0.85
2013-6-18,95,82,73,77,72,69,95,74,44,29.92,29.92,10,2,14,0.04
2013-6-19,94,82,73,76,73,69,93,74,47,29.92,29.92,18,3,26,0.12
2013-6-20,94,79,72,76,72,64,94,80,46,29.92,29.92,34,2,41,2.82
2013-6-21,90,76,70,76,72,68,97,86,52,29.92,29.92,23,2,30,0.72
2013-6-22,93,81,71,78,71,61,97,73,41,29.92,29.92,9,2,11,0.00
2013-6-23,90,80,73,76,73,70,95,82,54,29.92,29.92,12,2,21,0.00
2013-6-24,92,82,74,76,73,67,94,74,46,29.92,29.92,11,4,17,0.00
2013-6-25,93,83,74,76,72,66,95,72,43,29.92,29.92,11,3,14,0.00
2013-6-26,94,80,72,77,73,71,95,83,49,29.92,29.92,21,3,28,0.78
2013-6-27,94,81,71,77,72,66,97,75,42,29.92,29.92,9,2,13,0.01
2013-6-28,93,80,74,76,73,68,93,80,51,29.92,29.92,12,3,18,0.13
2013-6-29,90,80,76,77,74,68,95,83,52,29.92,29.92,17,4,26,0.01
2013-6-30,89,78,74,77,74,70,95,88,61,29.92,29.92,15,4,21,0.28
2013-7-1,85,76,73,76,72,69,96,89,74,29.92,29.92,24,5,34,0.67
2013-7-2,84,77,74,76,73,72,96,89,70,29.92,29.92,12,3,17,0.26
2013-7-3,89,78,72,77,74,71,97,86,62,29.92,29.92,16,4,21,0.28
2013-7-4,89,80,72,77,73,66,96,82,55,29.92,29.92,23,4,27,0.04
2013-7-5,90,81,75,77,74,70,95,80,55,29.92,29.92,17,4,22,0.02
2013-7-6,90,82,75,75,73,69,94,76,50,29.92,29.92,14,5,17,0.00
2013-7-7,90,83,75,76,73,68,93,74,49,29.92,29.92,14,4,19,0.00
2013-7-8,92,83,76,77,73,66,94,73,46,29.92,29.92,11,3,17,0.00
2013-7-9,92,81,73,78,73,66,96,77,43,29.92,29.92,12,3,17,0.17
2013-7-10,90,81,73,78,72,68,96,76,49,29.92,29.92,13,3,16,0.01
2013-7-11,93,80,74,75,73,66,94,81,44,29.92,29.92,14,3,21,0.70
2013-7-12,89,78,72,77,74,70,96,85,59,29.92,29.92,16,2,22,0.38
2013-7-13,90,78,72,75,72,69,96,85,51,29.92,29.92,14,2,21,0.37
2013-7-14,90,78,73,75,73,71,96,87,58,29.92,29.92,14,4,20,0.00
2013-7-15,88,78,72,75,72,67,96,83,53,29.92,29.92,11,2,17,0.00
2013-7-16,89,78,74,75,73,69,95,84,53,29.92,29.92,22,3,28,0.50
2013-7-17,89,79,74,76,73,69,96,83,54,29.92,29.92,19,3,26,0.26
2013-7-18,86,77,73,77,73,70,96,88,62,29.92,29.92,14,2,18,1.28
2013-7-19,89,78,72,76,73,70,97,84,57,29.92,29.92,12,3,14,0.67
2013-7-20,91,78,74,79,73,71,96,85,55,29.92,29.92,16,2,23,0.79
2013-7-21,93,79,73,78,73,68,95,83,50,29.92,29.92,13,2,17,0.27
2013-7-22,94,81,74,77,73,68,95,78,47,29.92,29.92,13,2,16,0.00
2013-7-23,89,79,74,78,74,71,95,83,60,29.92,29.92,16,3,21,0.31
2013-7-24,89,80,75,77,75,72,93,83,64,29.92,29.92,17,3,26,0.50
2013-7-25,87,80,76,77,75,73,93,85,67,29.92,29.92,11,3,14,0.52
2013-7-26,95,82,75,77,74,70,96,78,46,29.92,29.92,9,2,14,0.01
2013-7-27,93,82,73,78,74,72,96,80,55,29.92,29.92,11,2,17,0.13
2013-7-28,93,79,73,78,73,68,96,82,46,29.92,29.92,16,2,22,0.13
2013-7-29,94,82,73,78,73,67,96,77,43,29.92,29.92,17,2,21,0.01
2013-7-30,94,83,74,78,74,69,95,75,50,29.92,29.92,13,3,17,0.00
2013-7-31,92,83,76,79,74,67,94,76,49,29.92,29.92,15,2,20,0.00
2013-8-1,93,82,75,78,73,66,95,76,44,29.92,29.92,14,2,19,0.04
2013-8-2,95,83,74,78,73,68,96,75,43,29.92,29.92,10,2,13,0.00
2013-8-3,94,80,76,78,74,70,94,82,48,29.92,29.92,17,3,27,0.01
2013-8-4,92,82,75,79,75,72,96,82,55,29.92,29.92,19,2,27,0.18
2013-8-5,94,82,75,80,75,71,95,82,51,29.92,29.92,11,2,18,1.80
2013-8-6,95,83,74,79,75,71,97,78,48,29.92,29.92,8,1,14,0.00
2013-8-7,93,83,77,79,75,73,94,79,53,29.92,29.92,18,2,21,0.00
2013-8-8,94,84,77,78,74,70,93,75,48,29.92,29.92,12,4,16,0.00
2013-8-9,91,81,76,78,74,70,94,80,53,29.92,29.92,17,2,23,0.24
2013-8-10,94,84,74,78,73,69,95,73,45,29.92,29.92,11,4,16,0.01
2013-8-11,96,84,75,79,74,69,95,74,44,29.92,29.92,11,3,14,0.00
2013-8-12,95,84,74,77,72,67,95,71,45,29.92,29.92,9,2,13,0.00
2013-8-13,96,85,73,77,72,68,96,70,42,29.92,29.92,12,2,16,0.00
2013-8-14,95,82,76,78,74,70,94,79,48,29.92,29.92,11,2,14,0.25
2013-8-15,92,82,74,78,74,71,96,79,52,29.92,29.92,11,2,14,0.04
2013-8-16,93,83,78,77,74,70,93,76,50,30.01,29.92,9,2,12,0.01
2013-8-17,93,82,78,79,76,71,92,81,50,30.01,30.01,23,2,32,0.76
2013-8-18,90,81,76,78,75,72,94,82,59,30.01,30.01,13,3,17,0.06
2013-8-19,91,80,74,81,75,19,97,84,10,30.01,30.01,10,2,15,0.06
2013-8-20,92,82,74,79,74,71,96,80,50,30.01,30.01,14,2,21,0.45
2013-8-21,91,82,78,77,75,73,92,81,58,30.01,30.01,11,3,17,0.19
2013-8-22,90,81,76,79,75,72,94,83,59,30.01,30.01,11,2,17,0.05
2013-8-23,92,81,77,80,76,72,94,83,52,30.01,30.01,17,1,25,0.85
2013-8-24,92,80,75,81,74,71,97,85,51,30.01,30.01,15,1,25,0.37
2013-8-25,89,81,74,77,75,72,97,81,61,30.01,30.01,11,2,18,0.01
2013-8-26,85,84,75,75,75,71,92,75,72,30.01,30.01,9,3,14,0.20
2013-8-27,90,81,73,76,70,65,96,73,45,30.01,30.01,11,3,16,0.01
2013-8-28,92,80,71,76,69,62,95,72,40,30.01,30.01,12,2,17,0.00
2013-8-29,92,83,73,75,71,63,93,68,40,30.01,30.01,10,1,11,0.00
2013-8-30,95,82,74,76,73,68,95,77,44,30.01,30.01,18,2,24,0.13
2013-8-31,94,82,72,76,72,68,95,74,45,30.01,30.01,16,3,21,0.11
2013-9-1,93,80,73,76,72,68,94,79,46,30.01,30.01,18,2,24,0.58
2013-9-2,94,80,72,76,73,65,96,81,45,30.01,30.01,13,2,19,0.53
2013-9-3,91,79,72,79,74,70,96,84,60,30.01,30.01,12,2,15,0.07
2013-9-4,93,79,72,78,73,67,96,83,54,30.01,30.01,20,1,28,0.18
2013-9-5,94,81,73,78,73,69,95,79,53,30.01,30.01,11,2,15,0.02
2013-9-6,87,80,74,80,75,72,96,85,71,30.01,30.01,4,0,7,0.56
2013-9-7,91,78,72,77,73,69,97,84,54,30.01,30.01,7,1,10,0.01
2013-9-8,92,84,72,77,70,66,96,68,45,30.01,30.01,10,2,15,0.00
2013-9-9,92,89,78,74,69,63,86,53,40,30.01,30.01,10,4,20,0.00
2013-9-10,90,82,74,76,71,64,95,72,41,30.01,30.01,14,3,18,0.00
2013-9-11,92,82,74,76,71,65,94,72,42,30.01,30.01,13,3,17,0.00
2013-9-12,91,79,73,78,73,69,96,84,52,30.01,30.01,15,1,19,0.09
2013-9-13,92,81,72,76,72,69,97,77,50,30.01,30.01,7,1,8,0.01
2013-9-14,94,82,73,76,73,68,96,75,44,30.01,30.01,11,1,15,0.00
2013-9-15,91,82,76,78,74,73,93,79,58,30.01,30.01,11,3,17,0.24
2013-9-16,91,79,72,77,73,70,97,82,49,30.01,30.01,14,2,18,0.01
2013-9-17,88,79,73,78,73,70,96,83,58,30.01,30.01,13,2,21,0.52
2013-9-18,91,80,74,76,74,70,94,81,52,30.01,30.01,11,5,17,0.17
2013-9-19,80,80,80,75,75,75,84,84,84,30.01,30.01,7,7,12,0.00
2013-9-20,80,80,80,75,75,75,84,84,84,30.01,30.01,7,7,12,0.00
2013-9-21,80,80,76,75,75,70,85,83,73,30.01,30.01,7,6,12,0.64
2013-9-22,92,79,74,76,72,69,93,81,52,30.01,30.01,14,2,23,0.00
2013-9-23,88,77,73,77,74,72,97,91,66,30.01,30.01,11,2,14,2.15
2013-9-24,85,78,75,76,74,72,96,88,67,30.01,30.01,11,3,18,0.02
2013-9-25,84,77,74,75,72,69,95,86,64,30.01,30.01,14,4,18,0.12
2013-9-26,91,81,74,78,72,56,96,77,31,30.01,30.01,11,3,17,0.02
2013-9-27,85,76,69,74,70,68,97,83,61,30.01,30.01,11,2,18,0.00
2013-9-28,86,76,71,76,71,68,96,84,62,30.01,30.01,12,2,18,0.19
2013-9-29,88,77,69,73,68,63,95,77,45,30.01,30.01,11,1,15,0.00
2013-9-30,90,78,68,75,68,60,97,75,40,30.01,30.01,6,1,9,0.09
2013-10-1,89,82,71,76,70,66,96,70,49,30.01,30.01,8,2,11,0.01
2013-10-2,88,88,88,70,70,70,54,54,54,30.01,30.01,2,2,7,0.00
2013-10-3,88,87,76,72,70,70,86,57,54,30.01,30.01,8,2,12,0.00
2013-10-4,90,79,70,76,70,65,96,76,45,30.01,30.01,8,2,11,0.00
2013-10-5,90,79,70,76,71,67,96,78,52,30.01,30.01,10,2,15,0.07
2013-10-6,92,79,70,78,71,68,96,78,46,30.01,30.01,14,2,19,0.00
2013-10-7,86,77,73,76,73,70,95,86,67,30.01,30.01,17,3,24,0.21
2013-10-8,89,79,75,77,74,70,95,84,54,30.01,30.01,13,2,18,0.18
2013-10-9,84,75,68,71,68,66,91,80,60,30.01,30.01,9,3,15,0.02
2013-10-10,87,75,65,68,66,64,97,76,48,30.01,30.01,8,2,14,0.01
2013-10-11,88,75,63,71,64,60,97,72,40,30.01,30.01,8,1,11,0.01
2013-10-12,88,75,63,69,64,58,96,72,38,30.01,30.01,8,1,11,0.00
2013-10-13,86,74,62,70,63,57,97,71,38,30.01,30.01,8,1,10,0.00
2013-10-14,87,73,65,70,66,61,97,82,44,30.01,30.01,10,1,13,0.02
2013-10-15,82,72,67,72,68,66,97,88,64,30.01,30.01,7,1,9,0.02
2013-10-16,89,76,68,75,68,62,98,79,45,30.01,30.01,8,1,14,0.00
2013-10-17,90,77,67,75,68,65,98,77,46,30.01,30.01,6,1,9,0.01
2013-10-18,91,79,68,75,69,64,97,74,42,30.01,30.01,10,2,13,0.02
2013-10-19,91,80,70,75,70,66,95,75,46,30.01,30.01,10,2,14,0.01
2013-10-20,88,82,72,76,73,70,96,75,60,30.01,30.01,5,0,6,0.00
2013-10-21,88,88,88,73,73,73,60,60,60,30.01,30.01,0,0,6,0.00
2013-10-22,88,88,88,73,73,73,60,60,60,30.01,30.01,0,0,6,0.00
2013-10-23,88,83,67,73,66,53,70,58,36,30.01,30.01,8,1,13,0.09
2013-10-24,73,67,60,59,54,45,91,64,51,30.01,30.01,10,2,14,0.04
2013-10-25,82,69,59,61,55,48,93,66,32,30.01,30.01,8,2,13,0.00
2013-10-26,81,67,54,60,54,45,97,67,29,30.01,30.01,8,1,12,0.00
2013-10-27,82,67,54,61,55,46,98,70,30,30.01,30.01,8,2,12,0.01
2013-10-29,74,71,69,66,65,64,88,81,71,30.01,30.01,4,1,8,0.02
2013-10-30,85,74,65,70,65,63,96,77,48,30.01,30.01,11,2,16,0.01
2013-10-31,88,75,62,72,65,60,98,73,42,30.01,30.01,14,3,20,0.00
2013-11-1,89,76,66,74,67,62,97,77,42,30.01,30.01,15,3,19,0.00
2013-11-2,77,69,63,73,67,62,96,92,81,30.01,30.01,16,2,22,0.09
2013-11-3,78,66,58,62,53,36,99,67,22,30.01,30.01,13,3,17,0.04
2013-11-4,80,70,60,65,59,53,94,70,46,30.01,30.01,17,4,24,0.07
2013-11-5,84,73,65,69,67,63,95,81,54,30.01,30.01,13,4,22,0.01
2013-11-6,84,74,67,70,67,64,93,80,59,30.03,30.01,10,3,15,0.04
2013-11-7,84,72,64,72,66,62,98,84,53,30.01,30.01,6,1,9,0.00
2013-11-8,80,69,64,67,63,57,98,81,59,30.01,30.01,14,3,17,0.00
2013-11-9,81,71,63,66,62,59,89,74,54,30.01,30.01,12,3,17,0.00
2013-11-10,85,72,64,68,64,60,95,77,44,30.01,30.01,10,2,14,0.00
2013-11-11,84,72,64,68,65,62,97,79,50,30.01,30.01,9,2,16,0.01
2013-11-12,80,71,62,70,65,61,99,82,58,30.01,30.01,5,1,8,0.02
2013-11-13,68,62,54,63,52,48,86,69,55,30.01,30.01,16,6,26,0.05
2013-11-14,78,64,52,59,54,49,93,72,42,30.01,30.01,14,3,21,0.00
2013-11-15,78,68,58,66,62,55,94,81,63,30.01,30.01,7,2,10,0.05
2013-11-16,78,72,68,72,68,65,93,88,81,30.01,30.01,9,2,13,0.05
2013-11-17,87,77,68,72,69,66,94,78,52,30.01,30.01,13,3,16,0.00
2013-11-18,87,76,68,72,68,66,97,80,53,30.01,30.01,8,1,11,0.00
2013-11-19,81,73,65,72,65,59,94,78,53,30.01,30.01,8,2,11,0.04
2013-11-20,84,71,64,72,67,61,95,88,62,30.01,30.01,10,3,17,0.04
2013-11-21,84,73,69,72,70,68,97,90,64,30.01,30.01,14,3,19,1.36
2013-11-22,82,74,69,72,68,64,98,82,60,30.01,30.01,13,2,17,0.01
2013-11-23,85,73,64,70,65,62,97,78,47,30.01,30.01,10,1,11,0.00
2013-11-24,73,66,63,66,59,53,96,80,64,30.01,30.01,14,5,21,0.00
2013-11-25,73,69,65,63,58,53,85,68,54,30.01,30.01,14,6,23,0.00
2013-11-26,83,75,68,73,69,63,94,83,67,30.01,30.01,20,6,31,0.13
2013-11-27,75,64,46,73,57,38,95,78,59,30.01,30.01,18,7,31,0.53
2013-11-28,68,53,40,51,43,34,86,72,54,30.01,30.01,10,3,14,0.02
2013-11-29,73,61,53,58,53,49,93,77,56,30.01,30.01,13,4,18,0.01
2013-11-30,83,70,56,73,64,52,95,82,62,30.01,30.01,18,5,24,0.60
2013-12-1,73,66,62,65,63,60,95,89,72,30.01,30.01,8,2,11,0.02
2013-12-2,73,66,62,65,60,54,98,81,53,30.01,30.01,9,2,14,0.02
2013-12-3,79,67,55,64,59,54,97,77,49,30.01,30.01,11,2,14,0.00
2013-12-4,83,70,61,69,64,59,97,81,53,30.01,30.01,11,1,15,0.01
2013-12-5,84,72,60,70,64,59,98,79,52,30.01,30.01,11,2,14,0.00
2013-12-6,86,74,63,74,67,62,98,80,51,30.01,30.01,13,3,16,0.01
2013-12-7,85,73,62,72,65,60,97,77,45,30.01,30.01,7,1,9,0.01
2013-12-8,84,73,62,74,65,61,98,79,49,30.01,30.01,13,2,16,0.01
2013-12-9,84,72,62,73,65,61,98,81,53,30.01,30.01,11,2,14,0.00
2013-12-10,85,72,58,72,63,57,99,75,44,30.01,30.01,12,2,17,0.00
2013-12-11,84,72,60,69,63,55,89,75,54,30.01,30.01,8,2,13,0.00
2013-12-12,72,63,52,64,51,29,96,68,27,30.01,30.01,10,3,14,0.00
2013-12-13,76,62,49,57,52,43,93,72,49,30.01,30.01,14,2,17,0.00
2013-12-14,84,72,61,70,65,56,92,79,55,30.01,30.01,14,4,19,0.00
2013-12-15,74,69,59,70,63,55,94,83,62,30.01,30.01,11,3,18,0.08
2013-12-16,68,57,46,55,48,42,93,73,45,30.01,30.01,8,2,12,0.00
2013-12-17,71,61,44,54,50,42,93,68,53,30.01,30.01,8,2,11,0.00
2013-12-18,72,66,46,54,50,40,94,59,32,30.01,30.01,5,1,8,0.00
2013-12-19,77,59,40,58,51,40,99,76,45,30.01,30.01,10,1,12,0.30
2013-12-20,84,67,50,65,58,50,99,74,44,30.01,30.01,14,3,18,0.00
2013-12-21,86,73,61,71,66,59,97,80,53,30.01,30.01,17,4,24,0.00
2013-12-22,85,74,66,73,67,65,98,81,54,30.01,30.01,18,3,21,0.00
2013-12-23,87,74,64,75,67,62,99,81,46,30.01,30.01,14,2,21,0.00
2013-12-24,72,65,55,70,52,28,97,68,29,30.01,30.01,10,3,17,0.00
2013-12-25,76,62,55,56,46,36,86,57,45,30.01,30.01,11,2,19,0.00
2013-12-26,77,65,57,63,59,55,99,82,55,30.01,30.01,9,3,13,0.00
2013-12-27,73,66,61,65,62,58,93,86,74,30.01,30.01,9,3,12,0.00
2013-12-28,78,72,66,70,67,64,98,85,70,30.01,30.01,13,4,16,0.00
2013-12-29,79,72,64,73,69,63,96,91,77,30.01,30.01,12,4,16,0.12
2013-12-30,68,62,58,63,60,56,98,92,74,30.01,30.01,6,1,9,0.01
2013-12-31,69,64,57,57,51,46,92,65,45,30.01,30.01,8,2,13,0.00
2014-1-1,69,66,60,65,54,48,96,68,47,30.01,30.01,9,2,13,0.05
2014-1-2,83,70,62,72,61,48,99,77,47,30.01,30.01,17,4,22,0.78